Terminal Aerodrome Forecast
Issued by NWS Cleveland, OH

Home | Current Version | Previous Version | Graphics & Text | Print | Product List | Glossary On
Versions: 1 2 3 4 5 6 7 8 9 10 11 12 13
637
FTUS41 KCLE 221130
TAFMFD
TAF
KMFD 221130Z 2212/2312 33007KT P6SM BKN100
     FM221900 35012G20KT P6SM SCT025 BKN035
     FM222300 36004KT P6SM FEW035=

USA.gov is the U.S. government's official web portal to all federal, state and local government web resources and services.